Time,TemperatureF,DewpointF,PressureIn,WindDirection,WindDirectionDegrees,WindSpeedMPH,WindSpeedGustMPH,Humidity,HourlyPrecipIn,Conditions,Clouds,dailyrainin,SolarRadiationWatts/m^2,SoftwareType,DateUTC
2013-04-09 00:02:00,32.0,28.0,-100.00,NW,315,10.0,20.0,84,0.00,,,0.00,0.000000,,2013-04-09 07:02:00,
2013-04-09 00:12:00,32.0,28.0,-100.00,NW,315,10.0,20.0,84,0.00,,,0.00,0.000000,,2013-04-09 07:12:00,
2013-04-09 00:22:00,32.0,28.0,-100.00,NW,315,10.0,20.0,84,0.00,,,0.00,0.000000,,2013-04-09 07:22:00,
2013-04-09 00:32:00,32.0,28.0,-100.00,NW,315,10.0,20.0,84,0.00,,,0.00,0.000000,,2013-04-09 07:32:00,
2013-04-09 00:52:00,32.0,28.0,-100.00,NW,310,9.0,13.0,84,0.00,,,0.00,0.000000,,2013-04-09 07:52:00,
2013-04-09 01:02:00,32.0,28.0,-100.00,NW,310,9.0,13.0,84,0.00,,,0.00,0.000000,,2013-04-09 08:02:00,
2013-04-09 01:22:00,32.0,28.0,-100.00,NW,310,9.0,13.0,84,0.00,,,0.00,0.000000,,2013-04-09 08:22:00,
2013-04-09 01:32:00,32.0,28.0,-100.00,NW,310,9.0,13.0,84,0.00,,,0.00,0.000000,,2013-04-09 08:32:00,
2013-04-09 01:52:00,32.0,27.0,-100.00,NW,304,5.0,12.0,81,0.00,,,0.00,0.000000,,2013-04-09 08:52:00,
2013-04-09 02:02:00,32.0,27.0,-100.00,NW,304,5.0,12.0,81,0.00,,,0.00,0.000000,,2013-04-09 09:02:00,
2013-04-09 02:12:00,32.0,27.0,-100.00,NW,304,5.0,12.0,81,0.00,,,0.00,0.000000,,2013-04-09 09:12:00,
2013-04-09 02:22:00,32.0,27.0,-100.00,NW,304,5.0,12.0,81,0.00,,,0.00,0.000000,,2013-04-09 09:22:00,
2013-04-09 02:32:00,32.0,27.0,-100.00,NW,304,5.0,12.0,81,0.00,,,0.00,0.000000,,2013-04-09 09:32:00,
2013-04-09 02:53:00,32.0,26.0,-100.00,NW,305,6.0,8.0,79,0.00,,,0.00,0.000000,,2013-04-09 09:53:00,
2013-04-09 03:03:00,32.0,26.0,-100.00,NW,305,6.0,8.0,79,0.00,,,0.00,0.000000,,2013-04-09 10:03:00,
2013-04-09 03:12:00,32.0,26.0,-100.00,NW,305,6.0,8.0,79,0.00,,,0.00,0.000000,,2013-04-09 10:12:00,
2013-04-09 03:23:00,32.0,26.0,-100.00,NW,305,6.0,8.0,79,0.00,,,0.00,0.000000,,2013-04-09 10:23:00,
2013-04-09 03:32:00,32.0,26.0,-100.00,NW,305,6.0,8.0,79,0.00,,,0.00,0.000000,,2013-04-09 10:32:00,
2013-04-09 03:53:00,32.0,24.0,-100.00,NW,312,5.0,10.0,72,0.00,,,0.00,0.000000,,2013-04-09 10:53:00,
2013-04-09 04:02:00,32.0,24.0,-100.00,NW,312,5.0,10.0,72,0.00,,,0.00,0.000000,,2013-04-09 11:02:00,
2013-04-09 04:12:00,32.0,24.0,-100.00,NW,312,5.0,10.0,72,0.00,,,0.00,0.000000,,2013-04-09 11:12:00,
2013-04-09 04:22:00,32.0,24.0,-100.00,NW,312,5.0,10.0,72,0.00,,,0.00,0.000000,,2013-04-09 11:22:00,
2013-04-09 04:32:00,32.0,24.0,-100.00,NW,312,5.0,10.0,72,0.00,,,0.00,0.000000,,2013-04-09 11:32:00,
2013-04-09 04:52:00,32.0,27.0,-100.00,NW,310,4.0,12.0,80,0.00,,,0.00,0.000000,,2013-04-09 11:52:00,
2013-04-09 05:02:00,32.0,27.0,-100.00,NW,310,4.0,12.0,80,0.00,,,0.00,0.000000,,2013-04-09 12:02:00,
2013-04-09 05:12:00,32.0,27.0,-100.00,NW,310,4.0,12.0,80,0.00,,,0.00,0.000000,,2013-04-09 12:12:00,
2013-04-09 05:22:00,32.0,27.0,-100.00,NW,310,4.0,12.0,80,0.00,,,0.00,0.000000,,2013-04-09 12:22:00,
2013-04-09 05:32:00,32.0,27.0,-100.00,NW,310,4.0,12.0,80,0.00,,,0.00,0.000000,,2013-04-09 12:32:00,
2013-04-09 05:53:00,32.0,27.0,-100.00,NW,306,6.0,11.0,80,0.00,,,0.00,0.000000,,2013-04-09 12:53:00,
2013-04-09 06:02:00,32.0,27.0,-100.00,NW,306,6.0,11.0,80,0.00,,,0.00,0.000000,,2013-04-09 13:02:00,
2013-04-09 06:12:00,32.0,27.0,-100.00,NW,306,6.0,11.0,80,0.00,,,0.00,0.000000,,2013-04-09 13:12:00,
2013-04-09 06:22:00,32.0,27.0,-100.00,NW,306,6.0,11.0,80,0.00,,,0.00,0.000000,,2013-04-09 13:22:00,
2013-04-09 06:32:00,32.0,27.0,-100.00,NW,306,6.0,11.0,80,0.00,,,0.00,0.000000,,2013-04-09 13:32:00,
2013-04-09 06:53:00,33.0,24.0,-100.00,NE,45,1.0,7.0,69,0.00,,,0.00,1.000000,,2013-04-09 13:53:00,
2013-04-09 07:02:00,33.0,24.0,-100.00,NE,45,1.0,7.0,69,0.00,,,0.00,1.000000,,2013-04-09 14:02:00,
2013-04-09 07:12:00,33.0,24.0,-100.00,NE,45,1.0,7.0,69,0.00,,,0.00,1.000000,,2013-04-09 14:12:00,
2013-04-09 07:22:00,33.0,24.0,-100.00,NE,45,1.0,7.0,69,0.00,,,0.00,1.000000,,2013-04-09 14:22:00,
2013-04-09 07:32:00,33.0,24.0,-100.00,NE,45,1.0,7.0,69,0.00,,,0.00,1.000000,,2013-04-09 14:32:00,
2013-04-09 07:52:00,37.0,28.0,-100.00,SSW,198,2.0,6.0,69,0.00,,,0.00,72.000000,,2013-04-09 14:52:00,
2013-04-09 08:02:00,37.0,28.0,-100.00,SSW,198,2.0,6.0,69,0.00,,,0.00,72.000000,,2013-04-09 15:02:00,
2013-04-09 08:53:00,38.0,27.0,-100.00,South,181,2.0,5.0,65,-99.99,,,0.00,174.000000,,2013-04-09 15:53:00,
2013-04-09 09:03:00,38.0,27.0,-100.00,South,181,2.0,5.0,65,-99.99,,,0.00,174.000000,,2013-04-09 16:03:00,
2013-04-09 09:13:00,38.0,27.0,-100.00,South,181,2.0,5.0,65,-99.99,,,0.00,174.000000,,2013-04-09 16:13:00,
2013-04-09 09:23:00,38.0,27.0,-100.00,South,181,2.0,5.0,65,-99.99,,,0.00,174.000000,,2013-04-09 16:23:00,
2013-04-09 09:32:00,38.0,27.0,-100.00,South,181,2.0,5.0,65,-99.99,,,0.00,174.000000,,2013-04-09 16:32:00,
2013-04-09 09:53:00,38.0,30.0,-100.00,South,183,4.0,6.0,73,0.00,,,0.00,417.000000,,2013-04-09 16:53:00,
2013-04-09 10:02:00,38.0,30.0,-100.00,South,183,4.0,6.0,73,0.00,,,0.00,417.000000,,2013-04-09 17:02:00,
2013-04-09 10:12:00,38.0,30.0,-100.00,South,183,4.0,6.0,73,0.00,,,0.00,417.000000,,2013-04-09 17:12:00,
2013-04-09 10:22:00,38.0,30.0,-100.00,South,183,4.0,6.0,73,0.00,,,0.00,417.000000,,2013-04-09 17:22:00,
2013-04-09 10:32:00,38.0,30.0,-100.00,South,183,4.0,6.0,73,0.00,,,0.00,417.000000,,2013-04-09 17:32:00,
2013-04-09 10:54:00,41.0,31.0,-100.00,SSE,162,4.0,7.0,67,0.00,,,0.00,564.000000,,2013-04-09 17:54:00,
2013-04-09 11:02:00,41.0,31.0,-100.00,SSE,162,4.0,7.0,67,0.00,,,0.00,564.000000,,2013-04-09 18:02:00,
2013-04-09 11:12:00,41.0,31.0,-100.00,SSE,162,4.0,7.0,67,0.00,,,0.00,564.000000,,2013-04-09 18:12:00,
2013-04-09 11:22:00,41.0,31.0,-100.00,SSE,162,4.0,7.0,67,0.00,,,0.00,564.000000,,2013-04-09 18:22:00,
2013-04-09 11:32:00,41.0,31.0,-100.00,SSE,162,4.0,7.0,67,0.00,,,0.00,564.000000,,2013-04-09 18:32:00,
2013-04-09 12:02:00,44.0,30.0,-100.00,SSW,203,4.0,8.0,57,0.00,,,0.00,644.000000,,2013-04-09 19:02:00,
2013-04-09 12:12:00,44.0,30.0,-100.00,SSW,203,4.0,8.0,57,0.00,,,0.00,644.000000,,2013-04-09 19:12:00,
2013-04-09 12:22:00,44.0,30.0,-100.00,SSW,203,4.0,8.0,57,0.00,,,0.00,644.000000,,2013-04-09 19:22:00,
2013-04-09 12:32:00,44.0,30.0,-100.00,SSW,203,4.0,8.0,57,0.00,,,0.00,644.000000,,2013-04-09 19:32:00,
2013-04-09 13:02:00,46.0,30.0,-100.00,SSW,195,6.0,10.0,53,0.00,,,0.00,680.000000,,2013-04-09 20:02:00,
2013-04-09 13:12:00,46.0,30.0,-100.00,SSW,195,6.0,10.0,53,0.00,,,0.00,680.000000,,2013-04-09 20:12:00,
2013-04-09 13:22:00,46.0,30.0,-100.00,SSW,195,6.0,10.0,53,0.00,,,0.00,680.000000,,2013-04-09 20:22:00,
2013-04-09 13:32:00,46.0,30.0,-100.00,SSW,195,6.0,10.0,53,0.00,,,0.00,680.000000,,2013-04-09 20:32:00,
2013-04-09 13:52:00,50.0,31.0,-100.00,South,171,5.0,10.0,48,0.00,,,0.00,789.000000,,2013-04-09 20:52:00,
2013-04-09 14:02:00,50.0,31.0,-100.00,South,171,5.0,10.0,48,0.00,,,0.00,789.000000,,2013-04-09 21:02:00,
2013-04-09 14:12:00,50.0,31.0,-100.00,South,171,5.0,10.0,48,0.00,,,0.00,789.000000,,2013-04-09 21:12:00,
2013-04-09 14:22:00,50.0,31.0,-100.00,South,171,5.0,10.0,48,0.00,,,0.00,789.000000,,2013-04-09 21:22:00,
2013-04-09 14:32:00,50.0,31.0,-100.00,South,171,5.0,10.0,48,0.00,,,0.00,789.000000,,2013-04-09 21:32:00,
2013-04-09 14:53:00,52.0,29.0,-100.00,South,184,6.0,12.0,41,0.00,,,0.00,762.000000,,2013-04-09 21:53:00,
2013-04-09 15:03:00,52.0,29.0,-100.00,South,184,6.0,12.0,41,0.00,,,0.00,762.000000,,2013-04-09 22:03:00,
2013-04-09 15:12:00,52.0,29.0,-100.00,South,184,6.0,12.0,41,0.00,,,0.00,762.000000,,2013-04-09 22:12:00,
2013-04-09 15:22:00,52.0,29.0,-100.00,South,184,6.0,12.0,41,0.00,,,0.00,762.000000,,2013-04-09 22:22:00,
2013-04-09 15:32:00,52.0,29.0,-100.00,South,184,6.0,12.0,41,0.00,,,0.00,762.000000,,2013-04-09 22:32:00,
2013-04-09 15:53:00,52.0,26.0,-100.00,SW,216,4.0,14.0,36,0.00,,,0.00,653.000000,,2013-04-09 22:53:00,
2013-04-09 16:02:00,52.0,26.0,-100.00,SW,216,4.0,14.0,36,0.00,,,0.00,653.000000,,2013-04-09 23:02:00,
2013-04-09 16:12:00,52.0,26.0,-100.00,SW,216,4.0,14.0,36,0.00,,,0.00,653.000000,,2013-04-09 23:12:00,
2013-04-09 16:22:00,52.0,26.0,-100.00,SW,216,4.0,14.0,36,0.00,,,0.00,653.000000,,2013-04-09 23:22:00,
2013-04-09 16:32:00,52.0,26.0,-100.00,SW,216,4.0,14.0,36,0.00,,,0.00,653.000000,,2013-04-09 23:32:00,
2013-04-09 16:53:00,53.0,27.0,-100.00,WNW,289,4.0,10.0,36,0.00,,,0.00,377.000000,,2013-04-09 23:53:00,
2013-04-09 17:03:00,53.0,27.0,-100.00,WNW,289,4.0,10.0,36,0.00,,,0.00,377.000000,,2013-04-10 00:03:00,
2013-04-09 17:12:00,53.0,27.0,-100.00,WNW,289,4.0,10.0,36,0.00,,,0.00,377.000000,,2013-04-10 00:12:00,
2013-04-09 17:22:00,53.0,27.0,-100.00,WNW,289,4.0,10.0,36,0.00,,,0.00,377.000000,,2013-04-10 00:22:00,
2013-04-09 17:32:00,53.0,27.0,-100.00,WNW,289,4.0,10.0,36,0.00,,,0.00,377.000000,,2013-04-10 00:32:00,
2013-04-09 17:52:00,52.0,24.0,-100.00,West,279,6.0,12.0,33,0.00,,,0.00,192.000000,,2013-04-10 00:52:00,
2013-04-09 18:02:00,52.0,24.0,-100.00,West,279,6.0,12.0,33,0.00,,,0.00,192.000000,,2013-04-10 01:02:00,
2013-04-09 18:12:00,52.0,24.0,-100.00,West,279,6.0,12.0,33,0.00,,,0.00,192.000000,,2013-04-10 01:12:00,
2013-04-09 18:22:00,52.0,24.0,-100.00,West,279,6.0,12.0,33,0.00,,,0.00,192.000000,,2013-04-10 01:22:00,
2013-04-09 18:31:00,52.0,24.0,-100.00,West,279,6.0,12.0,33,0.00,,,0.00,192.000000,,2013-04-10 01:31:00,
2013-04-09 18:53:00,47.0,25.0,-100.00,NW,314,6.0,11.0,41,0.00,,,0.00,97.000000,,2013-04-10 01:53:00,
2013-04-09 19:02:00,47.0,25.0,-100.00,NW,314,6.0,11.0,41,0.00,,,0.00,97.000000,,2013-04-10 02:02:00,
2013-04-09 19:12:00,47.0,25.0,-100.00,NW,314,6.0,11.0,41,0.00,,,0.00,97.000000,,2013-04-10 02:12:00,
2013-04-09 19:22:00,47.0,25.0,-100.00,NW,314,6.0,11.0,41,0.00,,,0.00,97.000000,,2013-04-10 02:22:00,
2013-04-09 19:32:00,47.0,25.0,-100.00,NW,314,6.0,11.0,41,0.00,,,0.00,97.000000,,2013-04-10 02:32:00,
2013-04-09 19:52:00,44.0,28.0,-100.00,NW,325,7.0,14.0,52,0.00,,,0.00,35.000000,,2013-04-10 02:52:00,
2013-04-09 20:02:00,44.0,28.0,-100.00,NW,325,7.0,14.0,52,0.00,,,0.00,35.000000,,2013-04-10 03:02:00,
2013-04-09 20:12:00,44.0,28.0,-100.00,NW,325,7.0,14.0,52,0.00,,,0.00,35.000000,,2013-04-10 03:12:00,
2013-04-09 20:22:00,44.0,28.0,-100.00,NW,325,7.0,14.0,52,0.00,,,0.00,35.000000,,2013-04-10 03:22:00,
2013-04-09 20:32:00,44.0,28.0,-100.00,NW,325,7.0,14.0,52,0.00,,,0.00,35.000000,,2013-04-10 03:32:00,
2013-04-09 20:53:00,43.0,28.0,-100.00,NNW,333,7.0,11.0,55,0.00,,,0.00,1.000000,,2013-04-10 03:53:00,
2013-04-09 21:03:00,43.0,28.0,-100.00,NNW,333,7.0,11.0,55,0.00,,,0.00,1.000000,,2013-04-10 04:03:00,
2013-04-09 21:13:00,43.0,28.0,-100.00,NNW,333,7.0,11.0,55,0.00,,,0.00,1.000000,,2013-04-10 04:13:00,
2013-04-09 21:22:00,43.0,28.0,-100.00,NNW,333,7.0,11.0,55,0.00,,,0.00,1.000000,,2013-04-10 04:22:00,
2013-04-09 21:33:00,43.0,28.0,-100.00,NNW,333,7.0,11.0,55,0.00,,,0.00,1.000000,,2013-04-10 04:33:00,
2013-04-09 21:53:00,44.0,31.0,-100.00,NW,319,7.0,13.0,61,0.00,,,0.00,0.000000,,2013-04-10 04:53:00,
2013-04-09 22:02:00,44.0,31.0,-100.00,NW,319,7.0,13.0,61,0.00,,,0.00,0.000000,,2013-04-10 05:02:00,
2013-04-09 22:12:00,44.0,31.0,-100.00,NW,319,7.0,13.0,61,0.00,,,0.00,0.000000,,2013-04-10 05:12:00,
2013-04-09 22:22:00,44.0,31.0,-100.00,NW,319,7.0,13.0,61,0.00,,,0.00,0.000000,,2013-04-10 05:22:00,
2013-04-09 22:32:00,44.0,31.0,-100.00,NW,319,7.0,13.0,61,0.00,,,0.00,0.000000,,2013-04-10 05:32:00,
2013-04-09 22:53:00,45.0,34.0,-100.00,West,261,5.0,13.0,66,0.00,,,0.00,0.000000,,2013-04-10 05:53:00,
2013-04-09 23:02:00,45.0,34.0,-100.00,West,261,5.0,13.0,66,0.00,,,0.00,0.000000,,2013-04-10 06:02:00,
2013-04-09 23:12:00,45.0,34.0,-100.00,West,261,5.0,13.0,66,0.00,,,0.00,0.000000,,2013-04-10 06:12:00,
2013-04-09 23:22:00,45.0,34.0,-100.00,West,261,5.0,13.0,66,0.00,,,0.00,0.000000,,2013-04-10 06:22:00,
2013-04-09 23:32:00,45.0,34.0,-100.00,West,261,5.0,13.0,66,0.00,,,0.00,0.000000,,2013-04-10 06:32:00,
2013-04-09 23:52:00,45.0,35.0,-100.00,West,263,5.0,8.0,69,0.00,,,0.00,0.000000,,2013-04-10 06:52:00,